N14CK KLXV-KLXV

Flight info

Callsign N14CK
Flight time N/A
Altitude 12500
Route KLXV KASE KGWS KEGE KLXV
Aircraft M20T/L-VGD/C

Departure

Time 2026-04-21 23:49
Airport Lake County Airport (KLXV)

Arrival

Time N/A
Airport Lake County Airport (KLXV)
Time Latitude Longitude Altitude Speed Heading
2026-04-21 23:14 39.22431 -106.31582 9939 ft 0 kts 330°
2026-04-21 23:17 39.22434 -106.31588 9939 ft 3 kts 260°
2026-04-21 23:18 39.22430 -106.31604 9937 ft 0 kts 347°
2026-04-21 23:41 39.22438 -106.31606 9939 ft 4 kts 347°
2026-04-21 23:42 39.22480 -106.31658 9937 ft 12 kts 302°
2026-04-21 23:42 39.22469 -106.31749 9936 ft 9 kts 212°
2026-04-21 23:42 39.22404 -106.31741 9939 ft 11 kts 173°
2026-04-21 23:42 39.22310 -106.31722 9938 ft 16 kts 172°
2026-04-21 23:43 39.22184 -106.31697 9934 ft 20 kts 168°
2026-04-21 23:43 39.22035 -106.31662 9937 ft 24 kts 171°
2026-04-21 23:43 39.21859 -106.31622 9931 ft 26 kts 171°
2026-04-21 23:43 39.21674 -106.31584 9930 ft 27 kts 172°
2026-04-21 23:44 39.21489 -106.31541 9930 ft 26 kts 171°
2026-04-21 23:44 39.21313 -106.31505 9929 ft 25 kts 171°
2026-04-21 23:44 39.21172 -106.31461 9930 ft 16 kts 121°
2026-04-21 23:44 39.21137 -106.31360 9929 ft 14 kts 168°
2026-04-21 23:45 39.21096 -106.31380 9926 ft 0 kts 260°
2026-04-21 23:46 39.21096 -106.31381 9927 ft 1 kts 259°
2026-04-21 23:46 39.21089 -106.31431 9930 ft 7 kts 264°
2026-04-21 23:46 39.21118 -106.31463 9929 ft 0 kts 350°
2026-04-21 23:47 39.21203 -106.31485 9930 ft 28 kts 351°
2026-04-21 23:47 39.21494 -106.31545 9930 ft 55 kts 349°
2026-04-21 23:47 39.21945 -106.31641 9935 ft 74 kts 347°
2026-04-21 23:48 39.22484 -106.31773 9967 ft 84 kts 352°
2026-04-21 23:48 39.23078 -106.31863 10027 ft 90 kts 347°
2026-04-21 23:48 39.23671 -106.32084 10124 ft 87 kts 316°
2026-04-21 23:48 39.23913 -106.32723 10327 ft 80 kts 266°
2026-04-21 23:49 39.23749 -106.33418 10402 ft 85 kts 235°
2026-04-21 23:49 39.23249 -106.33899 10517 ft 94 kts 208°
2026-04-21 23:49 39.22593 -106.34144 10701 ft 102 kts 189°
2026-04-21 23:49 39.21866 -106.34136 10972 ft 102 kts 178°
2026-04-21 23:50 39.21173 -106.33959 11211 ft 100 kts 169°
2026-04-21 23:50 39.20492 -106.33750 11363 ft 102 kts 169°
2026-04-21 23:50 39.19787 -106.33527 11441 ft 109 kts 168°
2026-04-21 23:50 39.19075 -106.33332 11637 ft 101 kts 171°
2026-04-21 23:51 39.18376 -106.33129 11724 ft 105 kts 170°
2026-04-21 23:51 39.17662 -106.32932 11828 ft 106 kts 172°
2026-04-21 23:51 39.16944 -106.32752 11923 ft 107 kts 172°
2026-04-21 23:51 39.16236 -106.32577 12033 ft 102 kts 173°
2026-04-21 23:52 39.15519 -106.32444 12114 ft 107 kts 176°
2026-04-21 23:52 39.14781 -106.32379 12260 ft 104 kts 182°
2026-04-21 23:52 39.14065 -106.32354 12425 ft 104 kts 183°
2026-04-21 23:52 39.13334 -106.32360 12570 ft 105 kts 184°
2026-04-21 23:53 39.12620 -106.32296 12726 ft 104 kts 180°
2026-04-21 23:53 39.11889 -106.32296 12838 ft 105 kts 182°
2026-04-21 23:53 39.11167 -106.32387 12939 ft 107 kts 197°
2026-04-21 23:53 39.10483 -106.32789 13011 ft 110 kts 216°
2026-04-21 23:54 39.09876 -106.33352 13241 ft 100 kts 216°
2026-04-21 23:54 39.09360 -106.33950 13299 ft 109 kts 233°
2026-04-21 23:54 39.08978 -106.34850 13329 ft 119 kts 246°
2026-04-21 23:54 39.08703 -106.35841 13494 ft 116 kts 248°
2026-04-21 23:55 39.08454 -106.36856 13474 ft 127 kts 250°
2026-04-21 23:55 39.08290 -106.37997 13549 ft 131 kts 261°
2026-04-21 23:55 39.08219 -106.39166 13672 ft 129 kts 262°
2026-04-21 23:55 39.08262 -106.40293 13815 ft 128 kts 273°
2026-04-21 23:56 39.08348 -106.41467 13742 ft 135 kts 269°
2026-04-21 23:56 39.08323 -106.42699 13902 ft 134 kts 263°
2026-04-21 23:56 39.08224 -106.43893 13932 ft 139 kts 262°
2026-04-21 23:56 39.08148 -106.44742 13861 ft 148 kts 262°
2026-04-21 23:57 39.08081 -106.46453 13968 ft 150 kts 268°
2026-04-21 23:57 39.08030 -106.47813 14014 ft 150 kts 263°
2026-04-21 23:57 39.07918 -106.49148 14038 ft 150 kts 261°
2026-04-21 23:57 39.07889 -106.50502 14091 ft 152 kts 269°
2026-04-21 23:58 39.08020 -106.51875 14167 ft 155 kts 279°
2026-04-21 23:58 39.08337 -106.53191 14291 ft 154 kts 287°
2026-04-21 23:58 39.08824 -106.54451 14270 ft 161 kts 295°
2026-04-21 23:58 39.09427 -106.55681 14217 ft 161 kts 301°
2026-04-21 23:59 39.10107 -106.56831 14192 ft 163 kts 304°